Погода в Риддере

Казахстан     50°20′20″N   83°30′25″E
темп.,
°C
ветер,
м/с
пор.,
м/с
влажн.,
%
обл.,
%
осадки,
мм/ч
давл.,
гПа
погр.,
м
19 января, ср
ср1900:00−8св2295100 0.1 102640
03:00−8ссв2296100 0.3 102556
06:00−9в2192100 0.4 102312
09:00−7ссв1196100 0.6 102273
12:00−5с1295100 1.6 1020193
15:00−5с1296100 1.6 1019182
18:00−6сз1197100 3.1 101947
21:00−7зсз1197100 1.7 102169
20 января, чт
чт2000:00−9з2297100 3.6 1022106
03:00−10зсз1296100 1.5 102494
06:00−15с119994 2.1 102810
09:00−15всв229560 0.1 103112
12:00−10ссз229283 0.1 1029209
15:00−9сз229498 0.0 1030193
18:00−15всв229656 0.1 103311
21:00−16в328618 0.0 103312
21 января, пт
пт2100:00−16в32791 0.0 103211
03:00−16в32781 0.0 103211
06:00−15в32771 0.0 103011
09:00−15вюв32781 0.0 103011
12:00−8зюз00751 0.0 1025143
15:00−7зсз118815 0.0 1024107
18:00−15в329113 0.0 102810
21:00−15в32854 0.0 102810
22 января, сб
сб2200:00−15в32842 0.0 102910
03:00−15в32802 0.0 102910
06:00−16вюв32761 0.0 103010
09:00−15вюв22771 0.0 103111
12:00−8зсз11751 0.0 1028140
15:00−8сз118812 0.0 1029107
18:00−15в32886 0.0 103311
21:00−14вюв32781 0.0 103310
23 января, вс
вс2300:00−15вюв32762 0.0 103411
03:00−15вюв32711 0.0 103511
06:00−14вюв32630 0.0 103412
09:00−14вюв32620 0.0 103412
12:00−6с01630 0.0 103196
15:00−6ссв11832 0.0 103049
18:00−14в32722 0.0 103511
21:00−14в32571 0.0 103511